[[{"header":{"parameterUnit":"m.s-1","parameterCategory":1,"la1":30.2992,"la2":30.254,"lo1":-89.0895,"lo2":-89.0443,"dy":0.0025,"dx":0.0025,"nx":19,"ny":19,"refTime":"2026-05-15T09:00:00:Z","depth":0,"parameterNumber":2,"parameterNumberName":"U-component_of_WINDS"},"data":[0,0,0,-3.6822,-3.6824,-3.6899,-3.6899,-3.7018,-3.7019,0,0,0,0,0,0,0,0,0,0,0,-3.6813,-3.6814,-3.6822,-3.6824,-3.6899,-3.6899,-3.7018,-3.7019,0,0,0,0,0,0,0,0,0,0,0,-3.6812,-3.6814,-3.6816,-3.6824,-3.6899,-3.6899,-3.7018,-3.6953,0,0,0,0,0,0,0,0,0,0,-3.6876,-3.6881,-3.6814,-3.6816,-3.6825,-3.6899,-3.6899,-3.6949,-3.6957,-3.6994,0,-3.703,0,-3.7027,-3.7029,-3.7029,0,0,0,-3.6814,-3.6875,-3.6883,-3.6816,-3.6826,-3.6899,-3.6862,-3.6953,-3.6962,-3.7004,-3.7032,-3.7035,-3.7029,-3.703,-3.703,-3.7278,-3.7279,0,0,-3.681,-3.6834,-3.6877,-3.6889,-3.6879,-3.686,-3.6865,-3.6958,-3.699,-3.7032,-3.7038,-3.7031,-3.7031,-3.7032,-3.7276,-3.7278,0,0,0,-3.6805,-3.6831,-3.6836,-3.6885,-3.6897,-3.6862,-3.6868,-3.6985,-3.6985,-3.7039,-3.7032,-3.7031,-3.7033,-3.7274,-3.7277,-3.7379,0,0,0,-3.6802,-3.6828,-3.6835,-3.6851,-3.6895,-3.6942,-3.6893,-3.6979,-3.6988,-3.7032,-3.7032,-3.7035,-3.7272,-3.7276,-3.7372,-3.7422,0,0,0,-3.6804,-3.6828,-3.6844,-3.6852,-3.6885,-3.694,-3.6944,-3.698,-3.6985,-3.7029,-3.7035,-3.7271,-3.7275,-3.7366,-3.7412,-3.7493,0,0,0,-3.6812,-3.6933,-3.6846,-3.6979,-3.6885,-3.7003,-3.6944,-3.7031,-3.7081,-3.7032,-3.7273,-3.7277,-3.7364,-3.7406,-3.7487,-3.7563,-3.7598,0,0,-3.6978,-3.6954,-3.7031,-3.6955,-3.7095,-3.699,-3.7146,-3.7169,-3.7152,-3.7237,-3.7243,-3.7374,-3.7412,-3.7492,-3.779,-3.7818,0,0,0,-3.7092,-3.7147,-3.7179,-3.7228,-3.725,-3.7272,-3.727,-3.7279,-3.735,-3.72,-3.7426,-3.7448,-3.7494,-3.7529,-3.7552,-3.759,-3.7295,-3.7294,-3.7294,-3.7358,-3.7331,-3.7455,-3.7437,-3.7487,-3.7484,-3.7522,-3.7534,-3.7491,-3.7545,-3.7569,-3.7753,-3.7796,-3.7813,-3.7853,-3.761,-3.761,-3.761,-3.7611,-3.7596,-3.7669,-3.7612,-3.7712,-3.7683,-3.7767,-3.7772,-3.7739,-3.7813,-3.7733,-3.7772,-3.7683,-3.7845,-3.7877,-3.7618,-3.7617,-3.7616,-3.7615,-3.7615,-3.7765,-3.7795,-3.7805,-3.7875,-3.7933,-3.7912,-3.7986,-3.7958,-3.7931,-3.7971,-3.7992,-3.799,-3.7983,-3.7984,-3.7984,-3.7985,-3.7985,-3.7986,-3.7986,-3.7934,-3.7943,-3.8008,-3.8044,-3.8073,-3.8108,-3.811,-3.8138,-3.8161,-3.8134,-3.8134,-3.8086,-3.7867,-3.781,-3.7996,-3.7994,-3.7993,-3.7992,-3.7991,-3.8179,-3.812,-3.8221,-3.8251,-3.8291,-3.8351,-3.8315,-3.8375,-3.8395,-3.8433,-3.8378,-3.8221,-3.8194,-3.8175,-3.8128,-3.8384,-3.8384,-3.8384,-3.8384,-3.8319,-3.8304,-3.8401,-3.845,-3.8496,-3.8475,-3.8591,-3.8596,-3.8591,-3.8602,-3.8562,-3.8498,-3.848,-3.8464,-3.8438,-3.8394,-3.8712,-3.8712,-3.8713,-3.8467,-3.8456,-3.8559,-3.8554,-3.8585,-3.8612,-3.8721,-3.878,-3.8763,-3.8725,-3.8609,-3.8595,-3.8493,-3.8461,-3.8416,-3.8377,-3.8295,0,0]},{"header":{"parameterUnit":"m.s-1","parameterCategory":1,"la1":30.2992,"la2":30.254,"lo1":-89.0895,"lo2":-89.0443,"dy":0.0025,"dx":0.0025,"nx":19,"ny":19,"refTime":"2026-05-15T09:00:00:Z","depth":0,"parameterNumber":3,"parameterNumberName":"V-component_of_WINDS"},"data":[0,0,0,3.0692,3.0692,3.0691,3.0691,3.0681,3.068,0,0,0,0,0,0,0,0,0,0,0,3.0687,3.0687,3.0692,3.0692,3.0691,3.0691,3.0681,3.068,0,0,0,0,0,0,0,0,0,0,0,3.0687,3.0687,3.0687,3.0692,3.0691,3.0691,3.0681,3.0684,0,0,0,0,0,0,0,0,0,0,3.0686,3.0678,3.0687,3.0687,3.0692,3.0691,3.0691,3.0685,3.0684,3.0677,0,3.0671,0,3.0676,3.0679,3.0679,0,0,0,3.0695,3.0679,3.0683,3.0687,3.0692,3.0691,3.0692,3.0684,3.0684,3.0676,3.0671,3.0671,3.0676,3.0679,3.0679,3.0634,3.0634,0,0,3.0695,3.0684,3.0683,3.0682,3.0683,3.0692,3.0692,3.0684,3.0677,3.0671,3.0671,3.0675,3.0679,3.0679,3.0634,3.0634,0,0,0,3.0693,3.0684,3.0689,3.0682,3.0683,3.0692,3.0692,3.0677,3.068,3.0671,3.0675,3.0679,3.0679,3.0635,3.0634,3.0607,0,0,0,3.0693,3.0683,3.0689,3.0682,3.0683,3.0681,3.0685,3.068,3.068,3.0675,3.0679,3.0679,3.0635,3.0634,3.0609,3.0596,0,0,0,3.0689,3.0683,3.0681,3.0682,3.0682,3.0681,3.0683,3.0681,3.0682,3.0679,3.0679,3.0635,3.0635,3.061,3.0598,3.0581,0,0,0,3.0681,3.0657,3.0681,3.0655,3.0681,3.0665,3.0683,3.0671,3.0665,3.0679,3.0635,3.0634,3.0611,3.0599,3.0582,3.0564,3.0555,0,0,3.0644,3.0652,3.0637,3.0659,3.0636,3.0666,3.0639,3.0642,3.065,3.0639,3.0638,3.0608,3.0598,3.0581,3.0514,3.0507,0,0,0,3.0622,3.0612,3.0608,3.0603,3.0606,3.0607,3.0617,3.0618,3.0609,3.0643,3.0598,3.0592,3.0583,3.0574,3.0568,3.056,3.063,3.063,3.063,3.0554,3.0567,3.0545,3.0558,3.0553,3.0564,3.056,3.0564,3.0578,3.0567,3.0563,3.0521,3.0511,3.0507,3.0498,3.0555,3.0555,3.0555,3.0555,3.05,3.0487,3.0508,3.0494,3.0508,3.0495,3.0504,3.0515,3.0505,3.0525,3.0517,3.0537,3.0499,3.0492,3.0553,3.0554,3.0554,3.0554,3.0554,3.0456,3.0452,3.0456,3.045,3.0444,3.0459,3.0449,3.0462,3.0474,3.0466,3.0463,3.0464,3.0465,3.0464,3.0464,3.0464,3.0464,3.0464,3.0464,3.0408,3.0413,3.0403,3.0406,3.0405,3.0405,3.0416,3.0415,3.0417,3.0427,3.0427,3.0442,3.0493,3.0505,3.0461,3.0462,3.0462,3.0462,3.0463,3.0347,3.0363,3.0348,3.0347,3.0351,3.0345,3.0363,3.0359,3.036,3.0354,3.0372,3.0408,3.0416,3.042,3.043,3.0369,3.0369,3.0369,3.0369,3.0309,3.0315,3.0303,3.03,3.03,3.0315,3.0296,3.0305,3.0316,3.0317,3.0329,3.0343,3.0348,3.0353,3.0359,3.0368,3.0293,3.0293,3.0293,3.0271,3.0278,3.026,3.0273,3.0278,3.0281,3.0264,3.026,3.0276,3.029,3.0319,3.0322,3.0346,3.0353,3.0366,3.0375,3.0393,0,0]}]]